Time,TemperatureF,DewpointF,PressureIn,WindDirection,WindDirectionDegrees,WindSpeedMPH,WindSpeedGustMPH,Humidity,HourlyPrecipIn,Conditions,Clouds,dailyrainin,SoftwareType,DateUTC
2013-01-19 00:04:00,25.3,16.0,30.40,SSE,163,0.0,1.0,69,0.00,,,0.00,weatherlink.com 1.10,2013-01-19 05:04:00,
2013-01-19 00:19:00,25.4,16.0,30.40,SSE,152,0.0,2.0,67,0.00,,,0.00,weatherlink.com 1.10,2013-01-19 05:19:00,
2013-01-19 00:34:00,26.4,16.0,30.39,SSE,167,1.0,5.0,64,0.00,,,0.00,weatherlink.com 1.10,2013-01-19 05:34:00,
2013-01-19 00:49:00,27.1,16.0,30.39,SSE,150,2.0,4.0,62,0.00,,,0.00,weatherlink.com 1.10,2013-01-19 05:49:00,
2013-01-19 01:04:00,27.6,16.0,30.39,South,175,1.0,5.0,63,0.00,,,0.00,weatherlink.com 1.10,2013-01-19 06:04:00,
2013-01-19 01:19:00,27.7,16.0,30.38,South,191,3.0,4.0,63,0.00,,,0.00,weatherlink.com 1.10,2013-01-19 06:19:00,
2013-01-19 01:34:00,28.0,17.0,30.38,SSE,157,2.0,4.0,63,0.00,,,0.00,weatherlink.com 1.10,2013-01-19 06:34:00,
2013-01-19 01:49:00,28.1,17.0,30.38,SSE,157,1.0,4.0,64,0.00,,,0.00,weatherlink.com 1.10,2013-01-19 06:49:00,
2013-01-19 02:04:00,27.8,17.0,30.37,SSE,154,1.0,3.0,65,0.00,,,0.00,weatherlink.com 1.10,2013-01-19 07:04:00,
2013-01-19 02:19:00,27.6,18.0,30.37,SE,145,2.0,3.0,66,0.00,,,0.00,weatherlink.com 1.10,2013-01-19 07:19:00,
2013-01-19 02:34:00,27.5,18.0,30.37,SSE,166,1.0,4.0,67,0.00,,,0.00,weatherlink.com 1.10,2013-01-19 07:34:00,
2013-01-19 02:49:00,27.4,18.0,30.36,South,169,4.0,5.0,69,0.00,,,0.00,weatherlink.com 1.10,2013-01-19 07:49:00,
2013-01-19 03:04:00,27.9,19.0,30.36,South,181,2.0,5.0,69,0.00,,,0.00,weatherlink.com 1.10,2013-01-19 08:04:00,
2013-01-19 03:19:00,28.2,20.0,30.35,South,169,2.0,6.0,70,0.00,,,0.00,weatherlink.com 1.10,2013-01-19 08:19:00,
2013-01-19 03:34:00,28.2,20.0,30.34,South,172,1.0,5.0,71,0.00,,,0.00,weatherlink.com 1.10,2013-01-19 08:34:00,
2013-01-19 03:49:00,28.5,20.0,30.34,SSE,154,5.0,5.0,71,0.00,,,0.00,weatherlink.com 1.10,2013-01-19 08:49:00,
2013-01-19 04:04:00,28.5,21.0,30.34,SSE,167,3.0,4.0,72,0.00,,,0.00,weatherlink.com 1.10,2013-01-19 09:04:00,
2013-01-19 04:19:00,28.7,21.0,30.33,South,181,0.0,4.0,72,0.00,,,0.00,weatherlink.com 1.10,2013-01-19 09:19:00,
2013-01-19 04:34:00,29.0,22.0,30.32,SSE,167,3.0,6.0,74,0.00,,,0.00,weatherlink.com 1.10,2013-01-19 09:34:00,
2013-01-19 04:49:00,29.4,22.0,30.32,SSE,156,4.0,6.0,74,0.00,,,0.00,weatherlink.com 1.10,2013-01-19 09:49:00,
2013-01-19 05:04:00,29.7,23.0,30.32,South,191,2.0,6.0,75,0.00,,,0.00,weatherlink.com 1.10,2013-01-19 10:04:00,
2013-01-19 05:19:00,29.7,23.0,30.32,SSE,162,2.0,3.0,75,0.00,,,0.00,weatherlink.com 1.10,2013-01-19 10:19:00,
2013-01-19 05:34:00,29.9,23.0,30.31,South,172,2.0,3.0,76,0.00,,,0.00,weatherlink.com 1.10,2013-01-19 10:34:00,
2013-01-19 05:49:00,30.2,24.0,30.31,SSE,166,2.0,5.0,76,0.00,,,0.00,weatherlink.com 1.10,2013-01-19 10:49:00,
2013-01-19 06:04:00,30.4,24.0,30.31,SSW,210,2.0,5.0,77,0.00,,,0.00,weatherlink.com 1.10,2013-01-19 11:04:00,
2013-01-19 07:50:00,30.5,25.0,30.30,SSE,167,3.0,6.0,79,0.00,,,0.00,weatherlink.com 1.10,2013-01-19 12:50:00,
2013-01-19 08:05:00,31.9,25.0,30.30,South,174,3.0,7.0,77,0.00,,,0.00,weatherlink.com 1.10,2013-01-19 13:05:00,
2013-01-19 08:20:00,33.0,26.0,30.30,SSE,165,3.0,7.0,76,0.00,,,0.00,weatherlink.com 1.10,2013-01-19 13:20:00,
2013-01-19 08:35:00,33.9,26.0,30.31,SE,145,4.0,7.0,74,0.00,,,0.00,weatherlink.com 1.10,2013-01-19 13:35:00,
2013-01-19 08:50:00,34.7,27.0,30.31,SSE,156,6.0,6.0,73,0.00,,,0.00,weatherlink.com 1.10,2013-01-19 13:50:00,
2013-01-19 09:05:00,35.1,27.0,30.30,SSE,160,6.0,9.0,73,0.00,,,0.00,weatherlink.com 1.10,2013-01-19 14:05:00,
2013-01-19 09:20:00,35.7,27.0,30.31,SW,214,7.0,11.0,71,0.00,,,0.00,weatherlink.com 1.10,2013-01-19 14:20:00,
2013-01-19 09:35:00,36.5,28.0,30.30,South,186,4.0,11.0,70,0.00,,,0.00,weatherlink.com 1.10,2013-01-19 14:35:00,
2013-01-19 09:50:00,37.1,27.0,30.30,South,173,8.0,14.0,68,0.00,,,0.00,weatherlink.com 1.10,2013-01-19 14:50:00,
2013-01-19 10:06:00,38.0,28.0,30.30,SSE,161,2.0,12.0,67,0.00,,,0.00,weatherlink.com 1.10,2013-01-19 15:06:00,
2013-01-19 10:20:00,38.8,28.0,30.29,South,169,5.0,11.0,65,0.00,,,0.00,weatherlink.com 1.10,2013-01-19 15:20:00,
2013-01-19 10:35:00,39.7,28.0,30.28,SSW,212,9.0,16.0,64,0.00,,,0.00,weatherlink.com 1.10,2013-01-19 15:35:00,
2013-01-19 10:50:00,40.9,28.0,30.28,SE,142,10.0,12.0,60,0.00,,,0.00,weatherlink.com 1.10,2013-01-19 15:50:00,
2013-01-19 11:05:00,41.7,28.0,30.26,South,172,6.0,15.0,59,0.00,,,0.00,weatherlink.com 1.10,2013-01-19 16:05:00,
2013-01-19 11:20:00,42.7,29.0,30.24,South,183,7.0,13.0,58,0.00,,,0.00,weatherlink.com 1.10,2013-01-19 16:20:00,
2013-01-19 11:50:00,44.6,29.0,30.22,South,176,10.0,13.0,55,0.00,,,0.00,weatherlink.com 1.10,2013-01-19 16:50:00,
2013-01-19 12:06:00,45.6,29.0,30.20,South,173,11.0,15.0,53,0.00,,,0.00,weatherlink.com 1.10,2013-01-19 17:06:00,
2013-01-19 13:21:00,50.0,29.0,30.14,SW,225,12.0,14.0,44,0.00,,,0.00,weatherlink.com 1.10,2013-01-19 18:21:00,
2013-01-19 13:36:00,50.7,29.0,30.14,SSE,160,6.0,14.0,44,0.00,,,0.00,weatherlink.com 1.10,2013-01-19 18:36:00,
2013-01-19 14:06:00,52.2,29.0,30.12,SSE,160,6.0,14.0,41,0.00,,,0.00,weatherlink.com 1.10,2013-01-19 19:06:00,
2013-01-19 14:21:00,52.6,29.0,30.12,SSE,157,5.0,16.0,41,0.00,,,0.00,weatherlink.com 1.10,2013-01-19 19:21:00,
2013-01-19 14:51:00,53.2,32.0,30.10,SSE,153,9.0,11.0,44,0.00,,,0.00,weatherlink.com 1.10,2013-01-19 19:51:00,
2013-01-19 15:21:00,52.8,30.0,30.09,SSE,166,6.0,14.0,42,0.00,,,0.00,weatherlink.com 1.10,2013-01-19 20:21:00,
2013-01-19 15:37:00,52.4,31.0,30.09,SSE,167,7.0,13.0,44,0.00,,,0.00,weatherlink.com 1.10,2013-01-19 20:37:00,
2013-01-19 16:21:00,49.2,32.0,30.07,SSE,167,6.0,12.0,52,0.00,,,0.00,weatherlink.com 1.10,2013-01-19 21:21:00,
2013-01-19 16:51:00,46.9,32.0,30.06,SSW,197,2.0,11.0,57,0.00,,,0.00,weatherlink.com 1.10,2013-01-19 21:51:00,
2013-01-19 17:21:00,45.0,32.0,30.06,South,169,4.0,7.0,60,0.00,,,0.00,weatherlink.com 1.10,2013-01-19 22:21:00,
2013-01-19 17:36:00,44.2,32.0,30.05,SSE,167,4.0,6.0,62,0.00,,,0.00,weatherlink.com 1.10,2013-01-19 22:36:00,
2013-01-19 17:52:00,43.6,32.0,30.05,South,169,3.0,5.0,63,0.00,,,0.00,weatherlink.com 1.10,2013-01-19 22:52:00,
2013-01-19 18:07:00,42.9,32.0,30.05,South,169,2.0,4.0,65,0.00,,,0.00,weatherlink.com 1.10,2013-01-19 23:07:00,
2013-01-19 18:22:00,42.6,32.0,30.05,South,181,4.0,6.0,66,0.00,,,0.00,weatherlink.com 1.10,2013-01-19 23:22:00,
2013-01-19 18:37:00,42.2,32.0,30.04,SSE,166,3.0,5.0,67,0.00,,,0.00,weatherlink.com 1.10,2013-01-19 23:37:00,
2013-01-19 18:52:00,41.9,32.0,30.04,SSE,155,1.0,3.0,67,0.00,,,0.00,weatherlink.com 1.10,2013-01-19 23:52:00,
2013-01-19 19:07:00,41.6,32.0,30.04,SE,129,1.0,2.0,68,0.00,,,0.00,weatherlink.com 1.10,2013-01-20 00:07:00,
2013-01-19 20:07:00,41.5,32.0,30.02,SE,139,1.0,2.0,68,0.00,,,0.00,weatherlink.com 1.10,2013-01-20 01:07:00,
2013-01-19 20:22:00,40.8,31.0,30.02,SE,143,1.0,3.0,69,0.00,,,0.00,weatherlink.com 1.10,2013-01-20 01:22:00,
2013-01-19 20:37:00,40.8,31.0,30.02,SE,139,0.0,2.0,69,0.00,,,0.00,weatherlink.com 1.10,2013-01-20 01:37:00,
2013-01-19 20:52:00,40.9,31.0,30.01,SE,140,0.0,2.0,67,0.00,,,0.00,weatherlink.com 1.10,2013-01-20 01:52:00,
2013-01-19 21:07:00,40.9,30.0,30.00,SE,134,0.0,2.0,66,0.00,,,0.00,weatherlink.com 1.10,2013-01-20 02:07:00,
2013-01-19 21:23:00,41.4,30.0,30.00,SSE,163,1.0,4.0,65,0.00,,,0.00,weatherlink.com 1.10,2013-01-20 02:23:00,
2013-01-19 21:37:00,40.6,30.0,29.99,SSE,165,2.0,5.0,67,0.00,,,0.00,weatherlink.com 1.10,2013-01-20 02:37:00,
2013-01-19 21:52:00,38.6,30.0,29.98,SSE,152,0.0,3.0,72,0.00,,,0.00,weatherlink.com 1.10,2013-01-20 02:52:00,
2013-01-19 22:07:00,38.9,30.0,29.97,SE,125,0.0,4.0,71,0.00,,,0.00,weatherlink.com 1.10,2013-01-20 03:07:00,
2013-01-19 22:37:00,38.8,30.0,29.96,ESE,118,0.0,1.0,70,0.00,,,0.00,weatherlink.com 1.10,2013-01-20 03:37:00,
2013-01-19 22:52:00,39.3,29.0,29.96,WNW,299,0.0,1.0,68,0.00,,,0.00,weatherlink.com 1.10,2013-01-20 03:52:00,
2013-01-19 23:07:00,37.8,30.0,29.95,WNW,300,1.0,2.0,72,0.00,,,0.00,weatherlink.com 1.10,2013-01-20 04:07:00,
2013-01-19 23:37:00,38.8,29.0,29.93,SW,217,0.0,2.0,68,0.00,,,0.00,weatherlink.com 1.10,2013-01-20 04:37:00,
2013-01-19 23:52:00,38.7,29.0,29.91,SSW,203,2.0,3.0,69,0.00,,,0.00,weatherlink.com 1.10,2013-01-20 04:52:00,